Regional Weather Roundup
Issued by NWS

Home | Current Version | Previous Version | Text Only | Print | Product List | Glossary Off
Versions: 1 2 3 4 5 6 7 8 9 10 11 12 13 14 15 16 17 18 19 20 21 22 23 24 25 26 27 28 29 30 31 32 33 34 35 36 37 38 39 40 41 42 43 44 45 46 47 48 49 50

687
ASUS43 KBIS 172302
RWRND

NORTH DAKOTA REGIONAL WEATHER ROUNDUP
NATIONAL WEATHER SERVICE BISMARCK ND
500 PM CST SAT FEB 17 2018

NOTE: "FAIR" INDICATES FEW OR NO CLOUDS BELOW 12,000 FEET WITH NO
SIGNIFICANT WEATHER AND/OR OBSTRUCTIONS TO VISIBILITY.


NDZ001>003-009>011-017-180000-
NORTHWEST NORTH DAKOTA

CITY           SKY/WX    TMP DP  RH WIND       PRES   REMARKS
WILLISTON      CLOUDY    15   5  64 W7        29.94F WCI   5
MINOT          PTCLDY    17   4  56 W13       29.92S WCI   4
MINOT AFB      PTCLDY    15   5  65 W13       29.90F WCI   1
$$

NDZ018>021-031>035-040>046-180000-
SOUTHWEST NORTH DAKOTA

CITY           SKY/WX    TMP DP  RH WIND       PRES   REMARKS
BISMARCK       SUNNY     22  10  60 W13       29.97F WCI  10
DICKINSON      PTSUNNY   17   7  64 W6        29.88F WCI   9
GARRISON         N/A     17   4  56 NW10      29.93S WCI   5
HETTINGER ARPT CLOUDY    17   9  70 NW6       29.92F WCI   9
$$

NDZ004>008-012>016-024-026-027-054-180000-
NORTHEAST NORTH DAKOTA

CITY           SKY/WX    TMP DP  RH WIND       PRES   REMARKS
GRAND FORKS    MOCLDY    23  11  60 W18       29.94F WCI   9
GRND FRKS AFB  FAIR      21   8  57 NW13G21   29.93F WCI   8
DEVILS LAKE    FLURRIES  18  11  74 NW18      29.89F WCI   2
$$

NDZ022-023-025-028>030-036>039-047>053-180000-
SOUTHEAST NORTH DAKOTA

CITY           SKY/WX    TMP DP  RH WIND       PRES   REMARKS
FARGO          FAIR      23  10  57 W10       29.99R WCI  12
JAMESTOWN      CLEAR     23  10  57 W16       29.94S WCI  10
$$





USA.gov is the U.S. government's official web portal to all federal, state and local government web resources and services.